DLH51E EDDP-EDDS

Flight info

Callsign DLH51E
Flight time 0h 41m
Altitude 26000
Route NEVKO2Q NEVKO Q243 BAMKI Z94 GORKO/N0409F240 T726 TOSTU/N0404F230 T726 LBU
Aircraft A320/M-SDE3FGHIRWY/LB1

Departure

Time 2026-05-06 21:09
Airport Leipzig/Halle Airport (EDDP)

Arrival

Time 2026-05-06 21:50
Airport Stuttgart Airport (EDDS)
Time Latitude Longitude Altitude Speed Heading
2026-05-06 20:35 51.41927 12.21958 436 ft 0 kts 15°
2026-05-06 20:58 51.41926 12.21958 436 ft 2 kts 15°
2026-05-06 20:58 51.41902 12.21947 429 ft 4 kts 18°
2026-05-06 20:58 51.41879 12.21935 423 ft 0 kts 14°
2026-05-06 20:59 51.41878 12.21934 423 ft 4 kts 14°
2026-05-06 20:59 51.41852 12.21929 429 ft 4 kts 348°
2026-05-06 21:00 51.41831 12.21941 423 ft 4 kts 321°
2026-05-06 21:00 51.41816 12.21973 433 ft 4 kts 287°
2026-05-06 21:00 51.41812 12.21998 424 ft 0 kts 285°
2026-05-06 21:02 51.41817 12.21964 432 ft 9 kts 285°
2026-05-06 21:02 51.41841 12.21823 430 ft 16 kts 284°
2026-05-06 21:02 51.41875 12.21626 437 ft 20 kts 285°
2026-05-06 21:03 51.41917 12.21385 435 ft 25 kts 285°
2026-05-06 21:03 51.41966 12.21102 429 ft 28 kts 286°
2026-05-06 21:03 51.42041 12.20915 423 ft 18 kts 359°
2026-05-06 21:03 51.42185 12.20978 426 ft 24 kts 15°
2026-05-06 21:04 51.42350 12.21050 434 ft 26 kts 15°
2026-05-06 21:04 51.42543 12.21136 436 ft 31 kts 15°
2026-05-06 21:04 51.42752 12.21225 431 ft 18 kts 14°
2026-05-06 21:04 51.42879 12.21282 435 ft 20 kts 20°
2026-05-06 21:05 51.42952 12.21383 426 ft 0 kts 44°
2026-05-06 21:07 51.42961 12.21397 425 ft 6 kts 44°
2026-05-06 21:07 51.43018 12.21487 426 ft 14 kts 44°
2026-05-06 21:08 51.43096 12.21620 429 ft 17 kts 48°
2026-05-06 21:08 51.43131 12.21736 433 ft 11 kts 85°
2026-05-06 21:08 51.43132 12.21761 433 ft 0 kts 85°
2026-05-06 21:08 51.43140 12.21904 433 ft 46 kts 85°
2026-05-06 21:09 51.43182 12.22787 436 ft 110 kts 86°
2026-05-06 21:09 51.43254 12.24285 444 ft 158 kts 85°
2026-05-06 21:09 51.43328 12.26081 1020 ft 160 kts 86°
2026-05-06 21:09 51.43390 12.27818 1827 ft 156 kts 87°
2026-05-06 21:10 51.43471 12.29584 2366 ft 168 kts 88°
2026-05-06 21:10 51.43576 12.31543 2762 ft 184 kts 86°
2026-05-06 21:10 51.43704 12.33658 3201 ft 196 kts 86°
2026-05-06 21:10 51.43846 12.35885 3640 ft 207 kts 86°
2026-05-06 21:11 51.43952 12.38265 4018 ft 222 kts 86°
2026-05-06 21:11 51.44056 12.40843 4317 ft 244 kts 86°
2026-05-06 21:11 51.44193 12.43710 4674 ft 269 kts 85°
2026-05-06 21:11 51.44260 12.45712 5193 ft 273 kts 89°
2026-05-06 21:12 51.44084 12.49734 6353 ft 278 kts 105°
2026-05-06 21:12 51.43248 12.52542 7051 ft 284 kts 130°
2026-05-06 21:12 51.41702 12.54503 7768 ft 287 kts 158°
2026-05-06 21:12 51.39756 12.55190 8528 ft 289 kts 178°
2026-05-06 21:13 51.37765 12.55381 9564 ft 284 kts 179°
2026-05-06 21:13 51.35790 12.55560 10414 ft 285 kts 179°
2026-05-06 21:13 51.33770 12.55744 10878 ft 301 kts 179°
2026-05-06 21:13 51.32349 12.55876 11014 ft 317 kts 178°
2026-05-06 21:14 51.30065 12.56101 11243 ft 338 kts 178°
2026-05-06 21:14 51.26906 12.56440 12000 ft 348 kts 178°
2026-05-06 21:14 51.24477 12.56717 12682 ft 352 kts 177°
2026-05-06 21:14 51.22022 12.57004 13395 ft 356 kts 177°
2026-05-06 21:15 51.19536 12.57154 14041 ft 359 kts 186°
2026-05-06 21:15 51.17103 12.56313 14700 ft 360 kts 202°
2026-05-06 21:15 51.15616 12.55142 15143 ft 360 kts 213°
2026-05-06 21:15 51.13705 12.52572 15775 ft 362 kts 229°
2026-05-06 21:16 51.12327 12.49222 16391 ft 364 kts 245°
2026-05-06 21:16 51.11446 12.45421 17019 ft 367 kts 250°
2026-05-06 21:16 51.10611 12.41572 17640 ft 370 kts 250°
2026-05-06 21:16 51.09493 12.36421 18357 ft 374 kts 250°
2026-05-06 21:17 51.08915 12.33770 18706 ft 376 kts 250°
2026-05-06 21:17 51.08053 12.29832 19208 ft 378 kts 249°
2026-05-06 21:17 51.07181 12.25870 19725 ft 381 kts 249°
2026-05-06 21:17 51.06312 12.21939 20225 ft 383 kts 249°
2026-05-06 21:18 51.05421 12.17930 20726 ft 385 kts 249°
2026-05-06 21:18 51.04526 12.13907 21218 ft 387 kts 249°
2026-05-06 21:18 51.03627 12.09862 21662 ft 391 kts 249°
2026-05-06 21:18 51.02711 12.05722 21803 ft 402 kts 249°
2026-05-06 21:19 51.01774 12.01473 21936 ft 412 kts 249°
2026-05-06 21:19 51.00813 11.97127 22076 ft 421 kts 249°
2026-05-06 21:19 50.99830 11.92709 22209 ft 429 kts 249°
2026-05-06 21:19 50.98825 11.88207 22347 ft 436 kts 249°
2026-05-06 21:20 50.97812 11.83698 22489 ft 443 kts 249°
2026-05-06 21:20 50.96767 11.79068 22621 ft 448 kts 249°
2026-05-06 21:20 50.95712 11.74394 22784 ft 453 kts 249°
2026-05-06 21:20 50.94643 11.69654 22826 ft 459 kts 249°
2026-05-06 21:21 50.93564 11.64878 22821 ft 461 kts 249°
2026-05-06 21:21 50.92479 11.60097 22820 ft 461 kts 249°
2026-05-06 21:21 50.91391 11.55318 22808 ft 461 kts 249°
2026-05-06 21:21 50.90297 11.50533 22818 ft 462 kts 249°
2026-05-06 21:22 50.89203 11.45753 22817 ft 462 kts 249°
2026-05-06 21:22 50.88124 11.41043 22822 ft 462 kts 249°
2026-05-06 21:22 50.87029 11.36261 22822 ft 462 kts 249°
2026-05-06 21:22 50.85821 11.31558 22815 ft 461 kts 242°
2026-05-06 21:23 50.84114 11.27288 22819 ft 459 kts 232°
2026-05-06 21:23 50.82173 11.23282 22831 ft 459 kts 231°
2026-05-06 21:23 50.80228 11.19286 22829 ft 459 kts 231°
2026-05-06 21:23 50.78281 11.15295 22823 ft 459 kts 231°
2026-05-06 21:24 50.76331 11.11305 22831 ft 459 kts 231°
2026-05-06 21:24 50.74384 11.07320 22824 ft 458 kts 231°
2026-05-06 21:24 50.72391 11.03399 22825 ft 458 kts 226°
2026-05-06 21:24 50.70026 11.00056 22820 ft 457 kts 216°
2026-05-06 21:25 50.67458 10.97217 22832 ft 457 kts 214°
2026-05-06 21:25 50.64848 10.94360 22823 ft 457 kts 214°
2026-05-06 21:25 50.62239 10.91509 22822 ft 457 kts 214°
2026-05-06 21:25 50.59627 10.88652 22817 ft 457 kts 214°
2026-05-06 21:26 50.57020 10.85806 22824 ft 457 kts 214°
2026-05-06 21:26 50.54411 10.82959 22819 ft 457 kts 214°
2026-05-06 21:26 50.51800 10.80113 22820 ft 457 kts 214°
2026-05-06 21:26 50.49185 10.77267 22822 ft 457 kts 214°
2026-05-06 21:27 50.46570 10.74428 22813 ft 457 kts 214°
2026-05-06 21:27 50.43985 10.71627 22814 ft 457 kts 214°
2026-05-06 21:27 50.41377 10.68804 22810 ft 457 kts 214°
2026-05-06 21:27 50.38765 10.65973 22820 ft 457 kts 214°
2026-05-06 21:28 50.36154 10.63143 22812 ft 457 kts 214°
2026-05-06 21:28 50.33540 10.60304 22818 ft 457 kts 214°
2026-05-06 21:28 50.30923 10.57470 22815 ft 457 kts 214°
2026-05-06 21:28 50.28300 10.54650 22810 ft 457 kts 214°
2026-05-06 21:29 50.25673 10.51842 22815 ft 458 kts 214°
2026-05-06 21:29 50.23225 10.48786 22810 ft 459 kts 224°
2026-05-06 21:29 50.21248 10.44879 22810 ft 460 kts 236°
2026-05-06 21:29 50.19525 10.40650 22815 ft 461 kts 236°
2026-05-06 21:30 50.17828 10.36413 22818 ft 461 kts 236°
2026-05-06 21:30 50.16141 10.32156 22819 ft 461 kts 236°
2026-05-06 21:30 50.14461 10.27895 22812 ft 461 kts 236°
2026-05-06 21:30 50.12778 10.23632 22813 ft 461 kts 236°
2026-05-06 21:31 50.11089 10.19378 22818 ft 462 kts 236°
2026-05-06 21:31 50.09412 10.15191 22817 ft 461 kts 235°
2026-05-06 21:31 50.07424 10.11309 22820 ft 459 kts 224°
2026-05-06 21:31 50.04979 10.08150 22830 ft 457 kts 213°
2026-05-06 21:32 50.02195 10.05701 22836 ft 463 kts 207°
2026-05-06 21:32 49.96467 10.01008 22837 ft 467 kts 207°
2026-05-06 21:32 49.93592 9.98657 22835 ft 467 kts 207°
2026-05-06 21:33 49.90711 9.96307 22842 ft 467 kts 207°
2026-05-06 21:33 49.87875 9.93996 22841 ft 467 kts 207°
2026-05-06 21:33 49.84988 9.91689 22836 ft 467 kts 203°
2026-05-06 21:33 49.81924 9.90099 22839 ft 465 kts 194°
2026-05-06 21:34 49.78817 9.88782 22845 ft 461 kts 194°
2026-05-06 21:34 49.75728 9.87482 22851 ft 459 kts 194°
2026-05-06 21:34 49.72645 9.86193 22855 ft 459 kts 194°
2026-05-06 21:34 49.69561 9.84903 22856 ft 459 kts 194°
2026-05-06 21:35 49.66476 9.83610 22474 ft 458 kts 194°
2026-05-06 21:35 49.63418 9.82330 21944 ft 454 kts 194°
2026-05-06 21:35 49.60427 9.81080 21419 ft 450 kts 194°
2026-05-06 21:35 49.57411 9.79821 20901 ft 447 kts 194°
2026-05-06 21:36 49.54419 9.78574 20396 ft 444 kts 195°
2026-05-06 21:36 49.51437 9.77336 19898 ft 442 kts 195°
2026-05-06 21:36 49.48474 9.76110 19400 ft 440 kts 195°
2026-05-06 21:36 49.45533 9.74896 18909 ft 437 kts 195°
2026-05-06 21:37 49.42605 9.73688 18429 ft 434 kts 195°
2026-05-06 21:37 49.39691 9.72482 17925 ft 432 kts 195°
2026-05-06 21:37 49.36803 9.71287 17384 ft 429 kts 195°
2026-05-06 21:37 49.33921 9.70195 16855 ft 425 kts 191°
2026-05-06 21:38 49.31050 9.69484 16341 ft 421 kts 189°
2026-05-06 21:38 49.28182 9.68839 15831 ft 412 kts 189°
2026-05-06 21:38 49.25373 9.68220 15325 ft 404 kts 189°
2026-05-06 21:38 49.22617 9.67623 14828 ft 396 kts 189°
2026-05-06 21:39 49.19917 9.67047 14363 ft 388 kts 189°
2026-05-06 21:39 49.17265 9.66503 13883 ft 381 kts 189°
2026-05-06 21:39 49.14694 9.65981 13449 ft 374 kts 189°
2026-05-06 21:39 49.12150 9.65466 13047 ft 365 kts 189°
2026-05-06 21:40 49.09661 9.64981 12644 ft 356 kts 189°
2026-05-06 21:40 49.07229 9.64519 12254 ft 348 kts 189°
2026-05-06 21:40 49.04846 9.64072 11868 ft 341 kts 189°
2026-05-06 21:40 49.02516 9.63635 11485 ft 334 kts 189°
2026-05-06 21:41 49.00227 9.63208 11110 ft 329 kts 189°
2026-05-06 21:41 48.97980 9.62791 10729 ft 319 kts 189°
2026-05-06 21:41 48.95837 9.62396 10361 ft 302 kts 189°
2026-05-06 21:41 48.93802 9.62026 9999 ft 288 kts 189°
2026-05-06 21:42 48.91873 9.61772 9623 ft 277 kts 185°
2026-05-06 21:42 48.89982 9.61676 9221 ft 268 kts 184°
2026-05-06 21:42 48.88148 9.61607 8820 ft 259 kts 184°
2026-05-06 21:42 48.86371 9.61550 8426 ft 251 kts 184°
2026-05-06 21:43 48.84653 9.61508 8044 ft 243 kts 184°
2026-05-06 21:43 48.82987 9.61475 7664 ft 236 kts 184°
2026-05-06 21:43 48.81370 9.61448 7306 ft 228 kts 184°
2026-05-06 21:43 48.79805 9.61428 6985 ft 222 kts 184°
2026-05-06 21:44 48.78273 9.61413 6670 ft 220 kts 184°
2026-05-06 21:44 48.76766 9.61188 6344 ft 216 kts 204°
2026-05-06 21:44 48.75611 9.59896 6018 ft 209 kts 240°
2026-05-06 21:44 48.75302 9.57810 5685 ft 206 kts 275°
2026-05-06 21:45 48.75332 9.55670 5438 ft 202 kts 257°
2026-05-06 21:45 48.74910 9.53647 5180 ft 201 kts 254°
2026-05-06 21:45 48.74515 9.51627 4923 ft 199 kts 255°
2026-05-06 21:45 48.74137 9.49610 4654 ft 199 kts 255°
2026-05-06 21:46 48.73759 9.47586 4380 ft 200 kts 255°
2026-05-06 21:46 48.73385 9.45588 4098 ft 193 kts 255°
2026-05-06 21:46 48.73028 9.43675 3858 ft 184 kts 255°
2026-05-06 21:46 48.72691 9.41878 3619 ft 172 kts 255°
2026-05-06 21:47 48.72364 9.40201 3381 ft 161 kts 253°
2026-05-06 21:47 48.72066 9.38651 3228 ft 147 kts 255°
2026-05-06 21:47 48.71794 9.37195 3064 ft 141 kts 254°
2026-05-06 21:47 48.71521 9.35805 2936 ft 138 kts 255°
2026-05-06 21:48 48.71310 9.34394 2691 ft 137 kts 255°
2026-05-06 21:48 48.71044 9.33027 2567 ft 136 kts 252°
2026-05-06 21:48 48.70788 9.31652 2283 ft 135 kts 252°
2026-05-06 21:48 48.70515 9.30279 2017 ft 138 kts 253°
2026-05-06 21:49 48.70258 9.28904 1853 ft 137 kts 252°
2026-05-06 21:49 48.69988 9.27488 1670 ft 141 kts 253°
2026-05-06 21:49 48.69715 9.26083 1486 ft 137 kts 253°
2026-05-06 21:49 48.69460 9.24699 1290 ft 136 kts 253°
2026-05-06 21:50 48.69210 9.23375 1211 ft 115 kts 254°
2026-05-06 21:50 48.69037 9.22458 1228 ft 69 kts 254°
2026-05-06 21:50 48.68920 9.21846 1246 ft 53 kts 253°
2026-05-06 21:50 48.68833 9.21388 1258 ft 31 kts 255°
2026-05-06 21:51 48.68816 9.21158 1260 ft 21 kts 274°
2026-05-06 21:51 48.68841 9.20953 1266 ft 18 kts 284°
2026-05-06 21:51 48.68860 9.20837 1271 ft 8 kts 284°
2026-05-06 21:51 48.68870 9.20779 1273 ft 5 kts 286°
2026-05-06 21:52 48.68875 9.20675 1278 ft 14 kts 258°
2026-05-06 21:52 48.68858 9.20591 1278 ft 5 kts 253°
2026-05-06 21:52 48.68845 9.20523 1280 ft 11 kts 253°
2026-05-06 21:52 48.68822 9.20397 1282 ft 12 kts 254°
2026-05-06 21:53 48.68800 9.20278 1286 ft 11 kts 254°
2026-05-06 21:53 48.68779 9.20169 1287 ft 10 kts 254°
2026-05-06 21:53 48.68762 9.20080 1289 ft 8 kts 254°
2026-05-06 21:53 48.68759 9.20008 1291 ft 5 kts 294°
2026-05-06 21:54 48.68783 9.19967 1294 ft 9 kts 314°
2026-05-06 21:54 48.68821 9.19911 1297 ft 3 kts 319°
2026-05-06 21:54 48.68831 9.19902 1298 ft 4 kts 332°
2026-05-06 21:54 48.68864 9.19885 1301 ft 5 kts 343°
2026-05-06 21:55 48.68893 9.19833 1304 ft 7 kts 272°
2026-05-06 21:55 48.68881 9.19773 1306 ft 4 kts 252°
2026-05-06 21:55 48.68877 9.19752 1306 ft 2 kts 253°
2026-05-06 21:55 48.68866 9.19686 1308 ft 1 kts 280°
2026-05-06 21:56 48.68879 9.19674 1309 ft 6 kts 334°
2026-05-06 21:56 48.68903 9.19662 1311 ft 4 kts 341°
2026-05-06 21:56 48.68923 9.19653 1313 ft 2 kts 343°
2026-05-06 21:56 48.68935 9.19648 1314 ft 0 kts 344°
2026-05-06 21:57 48.68940 9.19646 1314 ft 2 kts 344°
2026-05-06 21:57 48.68943 9.19644 1314 ft 0 kts 344°